Location: Newark
(15.4608°S, 41.1635°W)
Time: 19:36:39
(UTC+00:00)

Transit 2A Rocket - All Passes

Search period start: 04 March 2021 00:00
Search period end: 14 March 2021 00:00
Orbit: 594 x 909 km, 66.7° (Epoch: 04 March)

Date Brightness Start Highest point End Pass type
(mag) Time Alt. Az. Time Alt. Az. Time Alt. Az.
04 Mar - 03:24:27 10° SSW 03:30:28 89° ESE 03:36:01 10° NNE night (unlit)
04 Mar - 16:02:29 10° NNW 16:07:16 68° ENE 16:12:33 10° SSE daylight
05 Mar - 02:42:08 10° S 02:47:51 46° ESE 02:53:10 10° NE night (unlit)
05 Mar - 04:26:50 10° WSW 04:29:55 15° WNW 04:32:55 10° NW night (unlit)
05 Mar - 15:20:35 10° NNE 15:24:50 31° ENE 15:29:27 10° SE daylight
05 Mar - 17:04:00 10° WNW 17:07:22 18° WSW 17:10:55 10° SSW daylight
06 Mar - 02:00:22 10° S 02:05:06 24° ESE 02:09:34 10° ENE night (unlit)
06 Mar - 03:42:32 10° SW 03:47:34 30° WNW 03:52:18 10° NNW night (unlit)
06 Mar - 14:39:49 10° NE 14:42:29 15° ENE 14:45:17 10° ESE daylight
06 Mar - 16:20:05 10° NW 16:24:35 35° WSW 16:29:30 10° S daylight
07 Mar - 01:19:53 10° SE 01:22:14 12° ESE 01:24:32 10° E night (unlit)
07 Mar - 02:59:18 10° SSW 03:05:08 60° WNW 03:10:32 10° N night (unlit)
07 Mar - 15:37:03 10° NNW 15:41:55 75° WSW 15:47:19 10° SSE daylight
08 Mar - 02:16:39 10° SSW 02:22:36 71° ESE 02:28:05 10° NNE night (unlit)
08 Mar - 14:54:42 10° N 14:59:24 51° ENE 15:04:36 10° SSE daylight
08 Mar - 16:40:44 10° WSW 16:42:15 11° WSW 16:43:49 10° SW daylight
09 Mar - 01:34:30 10° S 01:39:56 36° ESE 01:45:00 10° NE night (unlit)
09 Mar - 03:18:11 10° WSW 03:22:09 19° WNW 03:25:55 10° NNW night (unlit)
09 Mar - 14:13:06 10° NNE 14:17:01 24° ENE 14:21:13 10° SE daylight
09 Mar - 15:55:27 10° WNW 15:59:23 23° WSW 16:03:37 10° SSW daylight
10 Mar - 00:53:02 10° SSE 00:57:09 19° ESE 01:01:03 10° ENE night (unlit)
10 Mar - 02:34:22 10° SW 02:39:46 38° WNW 02:44:46 10° N night (unlit)
10 Mar - 13:33:23 10° ENE 13:34:42 11° ENE 13:36:01 10° E daylight
10 Mar - 15:11:55 10° NW 15:16:38 46° WSW 15:21:51 10° S daylight
11 Mar - 01:51:22 10° SSW 01:57:18 76° WNW 02:02:45 10° NNE night (unlit)
11 Mar - 14:29:08 10° NNW 14:34:02 85° ENE 14:39:29 10° SSE daylight
12 Mar - 01:08:54 10° S 01:14:43 55° ESE 01:20:04 10° NE night (unlit)
12 Mar - 02:54:56 10° W 02:56:41 11° WNW 02:58:23 10° WNW night (unlit)
12 Mar - 13:47:01 10° N 13:51:33 39° ENE 13:56:33 10° SE daylight
12 Mar - 15:31:24 10° W 15:34:15 15° WSW 15:37:15 10° SSW daylight
13 Mar - 00:26:57 10° S 00:32:00 29° ESE 00:36:44 10° ENE night (unlit)
13 Mar - 02:09:46 10° SW 02:14:21 24° WNW 02:18:38 10° NNW night (unlit)
13 Mar - 13:05:47 10° NNE 13:09:12 19° ENE 13:12:49 10° ESE daylight
13 Mar - 14:47:04 10° NW 14:51:25 29° WSW 14:56:08 10° S daylight
13 Mar - 23:45:54 10° SSE 23:49:09 15° ESE 23:52:18 10° E visible
